Regional Weather Roundup
Issued by NWS Sioux Falls, SD

Home | Current Version | Previous Version | Text Only | Print | Product List | Glossary On
Versions: 1 2 3 4 5 6 7 8 9 10 11 12 13 14 15 16 17 18 19 20 21 22 23 24 25 26 27 28 29 30 31 32 33 34 35 36 37 38 39 40 41 42 43 44 45 46 47 48 49 50
000
ASUS43 KFSD 131110
RWRFSD

WEATHER ROUNDUP FOR SE SOUTH DAKOTA/SW MINNESOTA/NW IOWA
NATIONAL WEATHER SERVICE SIOUX FALLS SD
600 AM CDT SUN JUL 13 2014

NOTE: "FAIR" INDICATES FEW OR NO CLOUDS BELOW 12,000 FEET WITH NO
SIGNIFICANT WEATHER AND OR OBSTRUCTIONS TO VISIBILITY.


SDZ038>040-050-052>070-131200-
SOUTHEAST SOUTH DAKOTA

CITY           SKY/WX    TMP DP  RH WIND       PRES   REMARKS
CHAMBERLAIN    CLEAR     61  60  96 CALM      30.07R
HURON          CLEAR     61  59  93 NW6       30.03R
MADISON        FAIR      59  59 100 NW7       30.04R
MITCHELL       CLEAR     64  61  90 SW5       30.04R
SIOUX FALLS    PTCLDY    65  62  90 W3        30.02R
WINNER         FAIR      63  60  90 S5        30.10R
YANKTON        CLEAR     66  63  88 W6        30.05R
$$

MNZ071-072-080-081-089-090-097-098-131200-
SOUTHWEST MINNESOTA

CITY           SKY/WX    TMP DP  RH WIND       PRES   REMARKS
FAIRMONT       CLEAR     66  61  82 W8        29.98R
JACKSON        CLEAR     64  61  88 W6        30.01R
LUVERNE        CLEAR     63  61  94 CALM      30.02S
MARSHALL       CLEAR     59  55  88 NW7       30.00R
MONTEVIDEO     CLEAR     57  55  94 NW5       30.01R
PIPESTONE      CLEAR     64  63  94 N7        30.03R
REDWOOD FALLS  CLEAR     62  61  96 NW8       29.98R
TRACY          CLEAR     64  61  90 W5        30.01S
WINDOM         CLEAR     64  61  88 NW7       30.00R
WORTHINGTON    CLEAR     66  63  88 W7        30.02S
$$

IAZ001>003-012>014-020>022-031-032-NEZ013-014-SDZ071-131200-
NORTHWEST IOWA

CITY           SKY/WX    TMP DP  RH WIND       PRES   REMARKS
CHEROKEE       FOG       60  60 100 CALM      30.03R VSB 1/4
DENISON        FOG       61  61 100 CALM      30.02S VSB 1/4
ESTHERVILLE    CLEAR     64  62  93 W8        29.99S
LE MARS        CLEAR     63  63 100 CALM      30.05R FOG
ORANGE CITY    CLEAR     63  61  94 CALM      30.04R
SHELDON        PTCLDY    61  61 100 SW5       30.02R FOG
SIOUX CITY     FOG       62  61  96 CALM      30.05R VSB 1/4
SPENCER        CLEAR     63  61  93 SW5       30.02R
STORM LAKE     FOG       61  61 100 SW7       30.04R VSB<1/4
$$

ABBREVIATIONS USED IN REMARKS
   TC - TEMPERATURE IN CELSIUS
  WCI - WIND CHILL INDEX
   HX - HEAT INDEX
  VSB - VISIBILITY




USA.gov is the U.S. government's official web portal to all federal, state and local government web resources and services.